Content
SEND FEEDBACK

Daily
Averages
Monthly
Summary
Canada

VANCOUVER, BRITISH COLUMBIA


Home > North America > Canada > British Columbia
Elevation: 7 feet     Latitude: 49 11N     Longitude: 123 10W

WEATHER
 
SELECT A DAY
Number of Records: 253,003;   Date Range: 5/15/97 - 10/21/14
 
SHARE

PRINT THIS DATA

[ ← Previous Day ]
WEATHER ALMANAC - FEBRUARY 13, 2013
[ Next Day → ]
[ °C ]   °F
Weather ElementAverageHighLow
Temperature44.4 °F50 °F (2:55 pm)39.2 °F (5:15 am)
Dewpoint38.4 °F41 °F (11:35 am)37.4 °F (12:35 am)
Humidity79.7 %93 % (5:15 am)62 % (2:55 pm)
Barometer30.37 in30.47 in (11:35 pm)30.25 in (12:35 am)
Wind Speed3.7 mph10.4 mph (12:55 am)
Weather ElementAverage
Visibility10 mi
Wind DirectionESE (120.1 °)

Weather ElementTotal
Precipitation---
Heating Degree Days20.4 (Base 65)
Averaged from 69 records on February 13, 2013
WEATHER CONDITIONS BREAKOUT
WIND DIRECTION BREAKOUT
WEATHER BY HOUR - FEBRUARY 13, 2013
[ °C ]   °F
Local TimeTemperatureDewpointHumidityBarometerVisibilityWind DirectionWind SpeedGust SpeedPrecipitationEventsConditions
12:35 AM46.4 °F37.4 °F71 %30.25 in10.0 miSouth (190°)6.9 mphClear
12:55 AM46.4 °F37.4 °F71 %30.26 in10.0 miSSW (200°)10.4 mphClear
1:15 AM46.4 °F37.4 °F71 %30.26 in10.0 miSSW (200°)5.8 mphClear
1:35 AM44.6 °F37.4 °F76 %30.26 in10.0 miSW (220°)8.1 mphClear
1:55 AM44.6 °F37.4 °F76 %30.27 in10.0 miSSW (200°)9.2 mphClear
2:15 AM44.6 °F37.4 °F76 %30.27 in10.0 miSSW (200°)8.1 mphClear
2:35 AM44.6 °F37.4 °F76 %30.28 in10.0 miSouth (190°)6.9 mphClear
2:55 AM42.8 °F37.4 °F81 %30.29 in10.0 miSouth (190°)6.9 mphClear
3:15 AM42.8 °F37.4 °F81 %30.29 in10.0 miSSW (210°)5.8 mphClear
3:35 AM42.8 °F37.4 °F81 %30.29 in10.0 miSSW (210°)5.8 mphClear
3:55 AM41.0 °F37.4 °F87 %30.30 in10.0 miSSW (210°)5.8 mphClear
4:15 AM41.0 °F37.4 °F87 %30.30 in10.0 miSSW (200°)5.8 mphClear
4:35 AM41.0 °F37.4 °F87 %30.31 in10.0 miSouth (190°)6.9 mphClear
4:55 AM41.0 °F37.4 °F87 %30.31 in10.0 miSSW (210°)6.9 mphClear
5:15 AM39.2 °F37.4 °F93 %30.31 in10.0 miCalmClear
5:35 AM39.2 °F37.4 °F93 %30.32 in10.0 miSouth (190°)5.8 mphClear
5:55 AM41.0 °F37.4 °F87 %30.33 in10.0 miSouth (190°)6.9 mphClear
6:15 AM41.0 °F37.4 °F87 %30.33 in10.0 miSSE (160°)4.6 mphClear
6:35 AM42.8 °F37.4 °F81 %30.33 in10.0 miSouth (190°)6.9 mphClear
6:55 AM41.0 °F37.4 °F87 %30.33 in10.0 miSSW (200°)8.1 mphClear
7:15 AM42.8 °F37.4 °F81 %30.34 in10.0 miSouth (190°)6.9 mphClear
7:35 AM42.8 °F37.4 °F81 %30.34 in10.0 miSouth (190°)6.9 mphMostly Cloudy
8:15 AM42.8 °F39.2 °F87 %30.36 in10.0 miSouth (190°)5.8 mphMostly Cloudy
8:35 AM42.8 °F39.2 °F87 %30.36 in10.0 miSouth (190°)8.1 mphScattered Clouds
8:55 AM42.8 °F39.2 °F87 %30.37 in10.0 miSouth (180°)4.6 mphClear
9:15 AM44.6 °F39.2 °F81 %30.38 in10.0 miSSW (200°)6.9 mphClear
9:35 AM44.6 °F39.2 °F81 %30.38 in10.0 miSSW (200°)6.9 mphClear
9:55 AM44.6 °F39.2 °F81 %30.38 in10.0 miSSW (200°)6.9 mphClear
10:15 AM44.6 °F39.2 °F81 %30.39 in10.0 miSSW (200°)8.1 mphClear
10:35 AM44.6 °F39.2 °F81 %30.39 in10.0 miSouth (190°)8.1 mphClear
10:55 AM46.4 °F39.2 °F76 %30.40 in10.0 miSouth (190°)5.8 mphClear
11:15 AM46.4 °F39.2 °F76 %30.40 in10.0 miSouth (190°)5.8 mphClear
11:35 AM46.4 °F41.0 °F81 %30.40 in10.0 miSouth (190°)5.8 mphClear
11:55 AM46.4 °F41.0 °F81 %30.40 in10.0 miCalmPartly Cloudy
12:15 PM46.4 °F41.0 °F81 %30.41 in10.0 miCalmClear
12:35 PM48.2 °F39.2 °F71 %30.40 in10.0 miWSW (250°)3.5 mphClear
12:55 PM48.2 °F39.2 °F71 %30.40 in10.0 miWest (270°)4.6 mphPartly Cloudy
1:15 PM48.2 °F39.2 °F71 %30.40 in10.0 miWNW (300°)3.5 mphPartly Cloudy
1:35 PM48.2 °F39.2 °F71 %30.40 in10.0 miWSW (240°)3.5 mphMostly Cloudy
1:55 PM48.2 °F37.4 °F66 %30.40 in10.0 miCalmOvercast
2:15 PM48.2 °F37.4 °F66 %30.40 in10.0 miWest (280°)3.5 mphScattered Clouds
2:35 PM48.2 °F37.4 °F66 %30.39 in10.0 miWSW (240°)3.5 mphMostly Cloudy
2:55 PM50.0 °F37.4 °F62 %30.39 in10.0 miCalmOvercast
3:15 PM48.2 °F37.4 °F66 %30.40 in10.0 miWest (260°)4.6 mphOvercast
3:35 PM48.2 °F37.4 °F66 %30.40 in10.0 miCalmOvercast
3:55 PM48.2 °F37.4 °F66 %30.40 in10.0 miCalmOvercast
4:15 PM48.2 °F37.4 °F66 %30.40 in10.0 miCalmMostly Cloudy
4:35 PM48.2 °F37.4 °F66 %30.40 in10.0 miCalmScattered Clouds
4:55 PM48.2 °F37.4 °F66 %30.40 in10.0 miCalmScattered Clouds
5:15 PM48.2 °F37.4 °F66 %30.41 in10.0 miCalmMostly Cloudy
5:35 PM46.4 °F39.2 °F76 %30.40 in10.0 miCalmPartly Cloudy
5:55 PM46.4 °F37.4 °F71 %30.41 in10.0 miCalmClear
6:15 PM44.6 °F39.2 °F81 %30.41 in10.0 miCalmClear
6:35 PM44.6 °F39.2 °F81 %30.41 in10.0 miCalmClear
6:55 PM44.6 °F39.2 °F81 %30.42 in10.0 miCalmClear
7:15 PM44.6 °F39.2 °F81 %30.42 in10.0 miCalmScattered Clouds
7:35 PM42.8 °F39.2 °F87 %30.43 in10.0 miCalmScattered Clouds
8:15 PM42.8 °F39.2 °F87 %30.43 in10.0 miCalmPartly Cloudy
8:35 PM41.0 °F39.2 °F93 %30.43 in10.0 miCalmPartly Cloudy
8:55 PM41.0 °F39.2 °F93 %30.43 in10.0 miCalmPartly Cloudy
9:15 PM41.0 °F39.2 °F93 %30.44 in10.0 miCalmMostly Cloudy
9:35 PM41.0 °F39.2 °F93 %30.45 in10.0 miCalmMostly Cloudy
9:55 PM41.0 °F39.2 °F93 %30.45 in10.0 miNorthMostly Cloudy
10:15 PM42.8 °F39.2 °F87 %30.45 in10.0 miCalmMostly Cloudy
10:35 PM42.8 °F39.2 °F87 %30.46 in10.0 miNorthScattered Clouds
10:55 PM42.8 °F39.2 °F87 %30.45 in10.0 miCalmScattered Clouds
11:15 PM42.8 °F39.2 °F87 %30.46 in10.0 miCalmPartly Cloudy
11:35 PM42.8 °F39.2 °F87 %30.47 in10.0 miCalmPartly Cloudy
11:55 PM42.8 °F39.2 °F87 %30.47 in10.0 miSSW (200°)5.8 mphMostly Cloudy
Hourly data recorded from CZBB, located miles away from Vancouver, British Columbia







STORIES FROM OUR PARTNERS